Theta_e
292 294 294 293 293 293 294 295 296 296 298 299 301 303 306 307 312 316 318 319 323 321
290 289 290 291 291 291 291 292 292 294 295 296 298 299 301 303 305 307 310 313 315 318
287 287 287 288 287 288 289 289 289 290 292 294 295 297 297 299 300 301 305 306 303 306
285 285 285 285 285 285 286 286 287 288 289 290 291 294 295 296 297 297 296 298 297 299
283 283 283 283 283 284 284 285 285 285 286 287 288 291 292 293 294 293 293 294 295 295
281 281 280 281 281 282 282 283 283 284 284 285 286 288 291 290 291 291 292 293 292 293
279 279 279 280 280 280 281 281 281 282 283 284 285 287 287 287 288 288 289 291 292 292
278 278 278 279 279 280 280 280 281 281 282 284 284 285 286 287 286 287 287 288 289 291
276 276 276 277 278 279 279 279 280 281 282 283 283 285 285 285 285 285 286 285 287 288
275 275 275 276 277 277 278 279 280 281 281 281 282 283 283 283 283 284 284 285 286 286
274 274 275 276 276 276 277 278 279 280 280 279 280 281 282 282 282 282 282 283 284 285
272 272 274 274 274 275 276 278 278 278 277 277 278 279 281 281 281 280 280 281 283 284
271 272 273 273 273 275 276 276 277 277 276 277 276 278 280 280 279 278 278 279 280 281
271 271 272 272 273 274 274 275 275 275 275 275 276 276 279 280 278 277 276 276 276 277
Wind_Speed
13 8 8 9 8 7 8 9 13 12 12 13 13 12 12 10 9 12 10 15 14 11
11 11 9 10 9 8 9 9 12 13 13 13 13 13 13 10 12 13 11 12 13 12
11 11 11 10 11 12 11 12 12 13 13 13 13 13 13 11 11 13 11 11 15 14
11 11 10 9 10 11 12 13 13 13 14 14 14 13 12 13 13 13 14 14 15 18
10 11 11 12 12 12 12 12 12 13 13 13 14 13 14 14 14 15 16 17 17 18
10 10 11 12 12 12 11 12 12 12 13 14 14 14 14 16 16 16 16 16 17 17
10 10 10 10 10 11 11 12 12 13 13 14 14 13 16 16 17 17 15 16 16 16
10 8 9 10 11 11 11 11 12 13 12 13 12 11 17 17 17 17 17 17 17 16
8 8 11 10 10 10 11 12 12 12 13 14 10 21 25 21 17 17 16 18 18 18
9 9 10 9 10 10 11 11 11 12 13 14 14 24 26 27 15 15 15 17 17 16
10 9 9 10 11 11 10 12 12 12 14 14 12 24 27 28 17 16 18 18 18 19
9 9 10 10 10 10 10 9 10 11 13 13 14 24 27 25 17 16 18 18 19 19
7 7 9 9 9 9 9 8 9 10 12 13 13 20 26 23 11 15 14 16 17 23
7 7 8 9 8 8 8 8 8 10 10 11 14 17 26 28 14 13 13 12 12 13
Wind_Direction
36 31 30 21 8 9 0 354 349 346 345 342 340 339 336 323 319 323 319 308 288 270
31 28 20 17 10 3 356 350 348 346 342 344 343 344 341 337 332 329 321 325 325 320
26 22 17 14 9 1 354 352 349 349 345 342 343 343 343 340 336 337 331 341 333 329
25 18 13 14 8 3 353 354 351 349 346 344 343 344 341 342 338 337 333 332 329 322
32 20 13 5 2 3 354 352 351 350 349 347 345 344 343 338 344 337 333 329 326 324
34 27 19 3 357 355 354 353 357 356 354 350 348 345 350 346 337 331 330 327 323 318
24 24 21 4 357 358 356 359 359 2 357 354 346 354 349 342 335 327 323 320 315 312
31 10 21 9 3 360 1 1 4 0 357 354 352 358 343 339 333 325 321 317 312 307
22 13 25 8 360 3 1 3 4 1 356 352 352 351 350 345 332 329 327 323 319 314
15 18 18 2 4 5 1 1 1 359 356 354 352 353 350 346 333 329 328 325 320 316
12 12 8 5 7 3 1 359 357 353 357 353 351 352 351 349 341 337 335 329 323 317
6 4 4 6 4 1 353 354 355 355 357 351 353 355 354 353 348 344 335 328 326 325
353 1 9 4 1 354 356 348 352 353 355 350 351 352 356 356 347 342 334 330 327 327
1 3 8 4 359 346 353 355 353 3 355 356 356 352 357 355 355 343 336 334 331 336